Location: 10048 Water Well
(33.8501°N, 106.8364°W)
Time: 01:09:03
(UTC+00:00)

PKM - Pass Details

Date: 11 December 2025
Orbit: 396 x 13730 km, 55.4° (Epoch: 17 January)

Event Time Altitude Azimuth Distance (km) Brightness Sun altitude
Exits shadow 12:47:21 33° 265° (W) 684 3.8 -15.2°
Maximum altitude 12:47:56 39° 232° (SW) 613 3.8 -15.1°
Drops below altitude 10° 12:50:41 10° 160° (SSE) 1,599 6.7 -14.6°
Sets 12:53:14 0° 152° (SSE) 2,882 8.2 -14.1°
